Zurück zum Katalog

DELTA 1 DEB

AktivSSO
NORAD 40757·DEBRIS·🇺🇸 United States

Gestartet Jul 29, 1976 von Vandenberg Space Force Base

Loading…

Nächste Überflüge (nächste 24 Stunden)

TLE

AktuellSource: Space-Track

Epoche: Sep 13, 2026, 03:15 UTC

1 40757U 76077GA  26256.13591511  .00000011  00000-0  35185-3 0  9994
2 40757 101.9209 230.7717 0004845 347.3407  12.7543 12.54852757587832

Verfolge DELTA 1 DEB in Echtzeit mit AllMySat

Download on the App Store